* Astronomy

Members Login
Username 
 
Password 
    Remember Me  
Post Info TOPIC: Asteroid 2012 VE6


L

Posts: 131433
Date:
Asteroid 2012 VE6
Permalink  
 


Orbital elements:
2012 VE6                                                 Earth MOID = 0.2418 AU
Epoch 2012 Sept. 30.0 TT = JDT 2456200.5                MPC
M 340.09199              (2000.0)            P               Q
n   0.50417276     Peri.   13.62423     +0.74828816     -0.65023303
a   1.5634469      Node    28.30973     +0.57972317     +0.54470108
e   0.2120161      Incl.   16.08381     +0.32246842     +0.52962037
P   1.95           H   23.5           G   0.15           U   8

MPEC 2012 - V25



__________________
Page 1 of 1  sorted by
 
Quick Reply

Please log in to post quick replies.



Create your own FREE Forum
Report Abuse
Powered by ActiveBoard